Location: El Para�so
(10.4896°N, 66.9245°W)
Time: 18:33:54
(UTC+00:00)

Cosmos 2341 Rocket - Pass Details

Date: 08 August 2020
Orbit: 969 x 1004 km, 82.9° (Epoch: 30 September)

Event Time Altitude Azimuth Distance (km) Brightness Sun altitude
Rises 23:18:28 0° 182° (S) 3,651 6.8 -7.8°
Reaches altitude 10° 23:20:57 10° 181° (S) 2,704 6.2 -8.4°
Maximum altitude 23:27:09 86° 95° (E) 975 4.0 -9.8°
Drops below altitude 10° 23:33:22 10° 5° (N) 2,714 6.5 -11.3°
Sets 23:35:53 0° 5° (N) 3,665 7.2 -11.9°
